| time (UTC) | temp F | wind direction | speed knots | gust knots | rain 1hr in | rain 24hr in | rain mn in | humidity % | barometer mb |
| 20260510083201 | 42 | 242 | 0.9 | 0.9 | 0.00 | 0.00 | 0.00 | 98 | 1015.6 |
| 20260510082656 | 42 | 237 | 0.0 | 0.9 | 0.00 | 0.00 | 0.00 | 98 | 1015.6 |
| 20260510082152 | 41 | 200 | 0.0 | 0.0 | 0.00 | 0.00 | 0.00 | 97 | 1015.6 |
| 20260510081647 | 42 | 187 | 0.0 | 0.0 | 0.00 | 0.00 | 0.00 | 97 | 1015.7 |
| 20260510081143 | 42 | 187 | 0.0 | 0.0 | 0.00 | 0.00 | 0.00 | 97 | 1015.6 |
| 20260510080642 | 42 | 280 | 0.0 | 0.9 | 0.00 | 0.00 | 0.00 | 97 | 1015.5 |
| 20260510080139 | 42 | 280 | 0.0 | 0.0 | 0.00 | 0.00 | 0.00 | 97 | 1015.6 |
| 20260510075636 | 41 | 279 | 0.9 | 0.9 | 0.00 | 0.00 | 0.00 | 97 | 1015.5 |
| 20260510075134 | 42 | 139 | 0.0 | 0.0 | 0.00 | 0.00 | 0.00 | 97 | 1015.5 |
| 20260510074630 | 41 | 226 | 0.0 | 0.0 | 0.00 | 0.00 | 0.00 | 96 | 1015.6 |
| 20260510074126 | 41 | 226 | 0.0 | 0.0 | 0.00 | 0.00 | 0.00 | 96 | 1015.3 |
| 20260510073622 | 42 | 216 | 0.0 | 0.0 | 0.00 | 0.00 | 0.00 | 96 | 1015.4 |
| 20260510073119 | 42 | 216 | 0.0 | 0.0 | 0.00 | 0.00 | 0.00 | 96 | 1015.3 |
| 20260510072616 | 42 | 216 | 0.0 | 0.0 | 0.00 | 0.00 | 0.00 | 95 | 1015.3 |
| 20260510072112 | 42 | 195 | 0.0 | 0.0 | 0.00 | 0.00 | 0.00 | 95 | 1015.3 |
| 20260510071609 | 42 | 231 | 0.0 | 0.0 | 0.00 | 0.00 | 0.00 | 95 | 1015.3 |
| 20260510071107 | 42 | 208 | 0.0 | 0.0 | 0.00 | 0.00 | 0.00 | 95 | 1015.1 |
| 20260510070603 | 42 | 208 | 0.0 | 0.0 | 0.00 | 0.00 | 0.00 | 95 | 1015.0 |
| 20260510070100 | 42 | 208 | 0.0 | 0.0 | 0.00 | 0.00 | 0.00 | 95 | 1015.1 |
| 20260510065556 | 42 | 208 | 0.0 | 0.0 | 0.00 | 0.00 | 0.00 | 94 | 1015.2 |
| 20260510065052 | 42 | 176 | 0.0 | 0.0 | 0.00 | 0.00 | 0.00 | 93 | 1015.2 |
| 20260510064549 | 42 | 290 | 0.0 | 0.0 | 0.00 | 0.00 | 0.00 | 94 | 1015.1 |
| 20260510064045 | 43 | 259 | 0.0 | 0.0 | 0.00 | 0.00 | 0.00 | 94 | 1015.1 |
| 20260510063543 | 43 | 259 | 0.0 | 0.0 | 0.00 | 0.00 | 0.00 | 94 | 1015.2 |
| 20260510063040 | 43 | 238 | 0.0 | 0.0 | 0.00 | 0.00 | 0.00 | 94 | 1014.9 |
| 20260510062535 | 42 | 139 | 0.0 | 0.0 | 0.00 | 0.00 | 0.00 | 94 | 1015.1 |
| 20260510062031 | 42 | 138 | 0.0 | 0.0 | 0.00 | 0.00 | 0.00 | 94 | 1015.0 |
| 20260510061528 | 42 | 138 | 0.0 | 0.9 | 0.00 | 0.00 | 0.00 | 92 | 1015.1 |
| 20260510061024 | 43 | 138 | 0.0 | 0.0 | 0.00 | 0.00 | 0.00 | 93 | 1015.1 |
| 20260510060521 | 44 | 290 | 0.0 | 0.0 | 0.00 | 0.00 | 0.00 | 93 | 1015.0 |
| 20260510060017 | 44 | 290 | 0.0 | 0.0 | 0.00 | 0.00 | 0.00 | 94 | 1014.9 |
| 20260510055513 | 43 | 290 | 0.9 | 0.9 | 0.00 | 0.00 | 0.00 | 94 | 1015.2 |
| 20260510055011 | 43 | 290 | 0.0 | 0.9 | 0.00 | 0.00 | 0.00 | 93 | 1015.1 |
| 20260510054507 | 43 | 291 | 0.0 | 0.9 | 0.00 | 0.00 | 0.00 | 93 | 1014.9 |
| 20260510054002 | 43 | 292 | 0.0 | 0.0 | 0.00 | 0.00 | 0.00 | 93 | 1015.1 |
| 20260510053457 | 43 | 292 | 0.0 | 0.9 | 0.00 | 0.00 | 0.00 | 92 | 1015.2 |
| 20260510052953 | 43 | 292 | 0.0 | 0.9 | 0.00 | 0.00 | 0.00 | 92 | 1015.2 |
| 20260510052450 | 43 | 292 | 0.0 | 0.9 | 0.00 | 0.00 | 0.00 | 93 | 1015.1 |
| 20260510051946 | 43 | 293 | 0.0 | 1.7 | 0.00 | 0.00 | 0.00 | 93 | 1015.1 |
| 20260510051442 | 43 | 278 | 0.0 | 1.7 | 0.00 | 0.00 | 0.00 | 93 | 1015.2 |
| 20260510050938 | 43 | 235 | 0.0 | 0.0 | 0.00 | 0.00 | 0.00 | 93 | 1015.3 |
| 20260510050435 | 43 | 235 | 0.0 | 0.0 | 0.00 | 0.00 | 0.00 | 93 | 1015.4 |
| 20260510045933 | 43 | 235 | 0.0 | 0.0 | 0.00 | 0.00 | 0.00 | 92 | 1015.3 |
| 20260510045430 | 43 | 235 | 0.0 | 0.0 | 0.00 | 0.00 | 0.00 | 92 | 1015.2 |
| 20260510044926 | 43 | 235 | 0.0 | 0.0 | 0.00 | 0.00 | 0.00 | 91 | 1015.5 |
| 20260510044423 | 44 | 235 | 0.0 | 0.0 | 0.00 | 0.00 | 0.00 | 91 | 1015.5 |
| 20260510043920 | 44 | 235 | 0.0 | 0.0 | 0.00 | 0.00 | 0.00 | 90 | 1015.5 |
| 20260510043416 | 44 | 235 | 0.0 | 0.0 | 0.00 | 0.00 | 0.00 | 90 | 1015.4 |
| 20260510042914 | 44 | 235 | 0.0 | 0.0 | 0.00 | 0.00 | 0.00 | 89 | 1015.4 |
| 20260510042410 | 44 | 235 | 0.0 | 0.0 | 0.00 | 0.00 | 0.00 | 89 | 1015.4 |
| 20260510041906 | 44 | 235 | 0.0 | 0.0 | 0.00 | 0.00 | 0.00 | 89 | 1015.3 |
| 20260510041403 | 44 | 235 | 0.0 | 0.9 | 0.00 | 0.00 | 0.00 | 89 | 1015.3 |
| 20260510040901 | 45 | 235 | 0.0 | 0.0 | 0.00 | 0.00 | 0.00 | 89 | 1015.0 |
| 20260510040358 | 45 | 235 | 0.0 | 0.0 | 0.00 | 0.00 | 0.00 | 89 | 1015.3 |
| 20260510035853 | 45 | 235 | 0.0 | 0.0 | 0.00 | 0.00 | 0.00 | 88 | 1015.2 |
| 20260510035349 | 45 | 235 | 0.0 | 0.0 | 0.00 | 0.00 | 0.00 | 87 | 1015.3 |
| 20260510034844 | 46 | 235 | 0.0 | 0.0 | 0.00 | 0.00 | 0.00 | 87 | 1015.3 |
| 20260510034343 | 46 | 235 | 0.0 | 0.0 | 0.00 | 0.00 | 0.00 | 87 | 1015.2 |
| 20260510033839 | 46 | 235 | 0.0 | 0.0 | 0.00 | 0.00 | 0.00 | 86 | 1015.0 |
| 20260510033336 | 46 | 235 | 0.0 | 0.0 | 0.00 | 0.00 | 0.00 | 86 | 1015.0 |
| 20260510032832 | 46 | 235 | 0.9 | 0.9 | 0.00 | 0.00 | 0.00 | 86 | 1015.2 |
| 20260510032329 | 47 | 240 | 0.0 | 0.0 | 0.00 | 0.00 | 0.00 | 85 | 1015.2 |
| 20260510031825 | 47 | 240 | 0.0 | 0.0 | 0.00 | 0.00 | 0.00 | 85 | 1015.1 |
| 20260510031320 | 46 | 240 | 0.0 | 0.0 | 0.00 | 0.00 | 0.00 | 85 | 1015.1 |
| 20260510030815 | 47 | 240 | 0.0 | 0.0 | 0.00 | 0.00 | 0.00 | 84 | 1015.2 |
| 20260510030312 | 48 | 295 | 0.0 | 0.0 | 0.00 | 0.00 | 0.00 | 81 | 1015.1 |
| 20260510025809 | 48 | 295 | 0.0 | 0.0 | 0.00 | 0.00 | 0.00 | 82 | 1015.1 |
| 20260510025306 | 48 | 295 | 0.0 | 0.9 | 0.00 | 0.00 | 0.00 | 82 | 1015.0 |
| 20260510024803 | 47 | 295 | 0.0 | 0.0 | 0.00 | 0.00 | 0.00 | 83 | 1015.0 |
| 20260510024300 | 47 | 295 | 0.0 | 0.0 | 0.00 | 0.00 | 0.00 | 84 | 1015.1 |
| 20260510023755 | 47 | 295 | 0.0 | 0.0 | 0.00 | 0.00 | 0.00 | 83 | 1014.9 |
| 20260510023247 | 48 | 295 | 0.0 | 0.0 | 0.00 | 0.00 | 0.00 | 83 | 1014.9 |
| 20260510022744 | 48 | 295 | 0.0 | 0.0 | 0.00 | 0.00 | 0.00 | 82 | 1014.8 |
| 20260510022243 | 49 | 295 | 0.0 | 0.0 | 0.00 | 0.00 | 0.00 | 80 | 1014.9 |
| 20260510021742 | 49 | 295 | 0.0 | 0.0 | 0.00 | 0.00 | 0.00 | 80 | 1014.6 |
| 20260510021241 | 49 | 295 | 0.0 | 0.0 | 0.00 | 0.00 | 0.00 | 79 | 1014.6 |
| 20260510020737 | 50 | 295 | 0.0 | 0.0 | 0.00 | 0.00 | 0.00 | 79 | 1014.5 |
| 20260510020236 | 50 | 294 | 0.0 | 0.0 | 0.00 | 0.00 | 0.00 | 79 | 1014.6 |
| 20260510015733 | 50 | 295 | 0.0 | 0.0 | 0.00 | 0.00 | 0.00 | 78 | 1014.2 |
| 20260510015229 | 51 | 309 | 0.0 | 0.0 | 0.00 | 0.00 | 0.00 | 77 | 1014.3 |
| 20260510014724 | 51 | 309 | 0.0 | 0.0 | 0.00 | 0.00 | 0.00 | 75 | 1014.0 |
| 20260510014222 | 51 | 309 | 0.0 | 0.0 | 0.00 | 0.00 | 0.00 | 75 | 1013.9 |
| 20260510013717 | 51 | 311 | 0.0 | 0.0 | 0.00 | 0.00 | 0.00 | 75 | 1013.9 |
| 20260510013213 | 52 | 311 | 0.0 | 0.0 | 0.00 | 0.00 | 0.00 | 75 | 1013.8 |
| 20260510012708 | 52 | 311 | 0.0 | 0.0 | 0.00 | 0.00 | 0.00 | 73 | 1013.8 |
| 20260510012203 | 52 | 311 | 0.0 | 0.0 | 0.00 | 0.00 | 0.00 | 73 | 1013.6 |
| 20260510011658 | 52 | 311 | 0.0 | 0.0 | 0.00 | 0.00 | 0.00 | 73 | 1013.6 |
| 20260510011154 | 52 | 311 | 0.0 | 0.0 | 0.00 | 0.00 | 0.00 | 73 | 1013.7 |
| 20260510010651 | 53 | 313 | 0.0 | 0.0 | 0.00 | 0.00 | 0.00 | 72 | 1013.5 |
| 20260510010148 | 53 | 313 | 0.0 | 0.0 | 0.00 | 0.00 | 0.00 | 71 | 1013.3 |
| 20260510005644 | 54 | 313 | 0.0 | 0.0 | 0.00 | 0.00 | 0.00 | 70 | 1013.4 |
| 20260510005141 | 54 | 313 | 0.0 | 0.0 | 0.00 | 0.00 | 0.00 | 69 | 1013.4 |
| 20260510004639 | 55 | 313 | 0.0 | 0.0 | 0.00 | 0.00 | 0.00 | 68 | 1013.2 |
| 20260510004137 | 55 | 313 | 0.0 | 0.0 | 0.00 | 0.00 | 0.00 | 67 | 1013.1 |
| 20260510003634 | 56 | 314 | 0.0 | 0.0 | 0.00 | 0.00 | 0.00 | 65 | 1013.1 |
| 20260510003129 | 56 | 314 | 0.0 | 0.0 | 0.00 | 0.00 | 0.00 | 64 | 1013.0 |
| 20260510002629 | 57 | 301 | 0.0 | 0.0 | 0.00 | 0.00 | 0.00 | 64 | 1012.7 |
| 20260510002127 | 58 | 301 | 0.0 | 0.0 | 0.00 | 0.00 | 0.00 | 63 | 1012.5 |
| 20260510001623 | 59 | 301 | 0.9 | 0.9 | 0.00 | 0.00 | 0.00 | 59 | 1012.6 |
| 20260510001122 | 59 | 312 | 0.9 | 1.7 | 0.00 | 0.00 | 0.00 | 59 | 1012.5 |
| 20260510000622 | 59 | 313 | 0.9 | 1.7 | 0.00 | 0.00 | 0.00 | 57 | 1012.3 |
| 20260510000120 | 60 | 312 | 0.9 | 1.7 | 0.00 | 0.00 | 0.00 | 57 | 1012.2 |
| 20260509235616 | 60 | 310 | 0.9 | 1.7 | 0.00 | 0.00 | 0.00 | 56 | 1012.1 |
| 20260509235113 | 61 | 300 | 0.9 | 1.7 | 0.00 | 0.00 | 0.00 | 55 | 1012.2 |
| 20260509234609 | 61 | 298 | 0.9 | 1.7 | 0.00 | 0.00 | 0.00 | 53 | 1012.1 |
| 20260509234107 | 61 | 298 | 0.9 | 0.9 | 0.00 | 0.00 | 0.00 | 55 | 1012.2 |
| 20260509233604 | 62 | 298 | 0.9 | 0.9 | 0.00 | 0.00 | 0.00 | 54 | 1012.2 |
| 20260509233101 | 63 | 279 | 0.0 | 0.0 | 0.00 | 0.00 | 0.00 | 49 | 1012.3 |
| 20260509232557 | 64 | 279 | 0.0 | 0.0 | 0.00 | 0.00 | 0.00 | 50 | 1012.3 |
| 20260509232055 | 64 | 19 | 3.5 | 5.2 | 0.00 | 0.00 | 0.00 | 48 | 1012.2 |
| 20260509231551 | 64 | 311 | 3.5 | 5.2 | 0.00 | 0.00 | 0.00 | 47 | 1012.4 |
| 20260509231049 | 64 | 313 | 0.9 | 2.6 | 0.00 | 0.00 | 0.00 | 47 | 1012.4 |
| 20260509230545 | 65 | 306 | 1.7 | 1.7 | 0.00 | 0.00 | 0.00 | 47 | 1012.2 |
| 20260509230043 | 66 | 320 | 5.2 | 8.7 | 0.00 | 0.00 | 0.00 | 45 | 1012.1 |
| 20260509225538 | 67 | 301 | 1.7 | 2.6 | 0.00 | 0.00 | 0.00 | 43 | 1012.3 |
| 20260509225033 | 68 | 313 | 2.6 | 3.5 | 0.00 | 0.00 | 0.00 | 43 | 1012.3 |
| 20260509224529 | 67 | 248 | 0.9 | 0.9 | 0.00 | 0.00 | 0.00 | 44 | 1012.3 |
| 20260509224026 | 67 | 326 | 4.3 | 5.2 | 0.00 | 0.00 | 0.00 | 42 | 1012.2 |
| 20260509223523 | 67 | 293 | 0.0 | 0.9 | 0.00 | 0.00 | 0.00 | 43 | 1012.0 |
| 20260509223021 | 67 | 236 | 0.9 | 7.0 | 0.00 | 0.00 | 0.00 | 42 | 1012.1 |
| 20260509222517 | 69 | 312 | 2.6 | 3.5 | 0.00 | 0.00 | 0.00 | 41 | 1012.0 |
| 20260509222012 | 69 | 300 | 1.7 | 2.6 | 0.00 | 0.00 | 0.00 | 39 | 1011.8 |
| 20260509221509 | 70 | 272 | 0.0 | 2.6 | 0.00 | 0.00 | 0.00 | 38 | 1012.1 |
| 20260509221004 | 69 | 285 | 3.5 | 5.2 | 0.00 | 0.00 | 0.00 | 38 | 1012.2 |
| 20260509220501 | 67 | 297 | 1.7 | 3.5 | 0.00 | 0.00 | 0.00 | 38 | 1011.9 |
| 20260509215957 | 68 | 260 | 0.0 | 0.9 | 0.00 | 0.00 | 0.00 | 39 | 1011.9 |
| 20260509215452 | 67 | 256 | 0.9 | 0.9 | 0.00 | 0.00 | 0.00 | 40 | 1011.9 |
| 20260509214950 | 67 | 322 | 2.6 | 3.5 | 0.00 | 0.00 | 0.00 | 38 | 1011.8 |
| 20260509214447 | 67 | 248 | 0.9 | 2.6 | 0.00 | 0.00 | 0.00 | 39 | 1011.7 |
| 20260509213944 | 67 | 307 | 2.6 | 2.6 | 0.00 | 0.00 | 0.00 | 39 | 1011.8 |
| 20260509213440 | 67 | 282 | 0.9 | 2.6 | 0.00 | 0.00 | 0.00 | 40 | 1011.8 |
| 20260509212937 | 67 | 304 | 0.0 | 0.9 | 0.00 | 0.00 | 0.00 | 39 | 1011.7 |
| 20260509212435 | 67 | 314 | 0.0 | 1.7 | 0.00 | 0.00 | 0.00 | 39 | 1011.5 |
| 20260509211930 | 68 | 200 | 0.9 | 1.7 | 0.00 | 0.00 | 0.00 | 39 | 1011.2 |
| 20260509211426 | 68 | 316 | 2.6 | 5.2 | 0.00 | 0.00 | 0.00 | 39 | 1011.2 |
| 20260509210923 | 70 | 135 | 0.0 | 2.6 | 0.00 | 0.00 | 0.00 | 41 | 1011.2 |
| 20260509210420 | 69 | 254 | 0.0 | 1.7 | 0.00 | 0.00 | 0.00 | 38 | 1011.1 |
| 20260509205915 | 69 | 328 | 1.7 | 2.6 | 0.00 | 0.00 | 0.00 | 39 | 1011.1 |
| 20260509205415 | 68 | 335 | 0.0 | 1.7 | 0.00 | 0.00 | 0.00 | 43 | 1011.1 |
| 20260509204912 | 69 | 311 | 1.7 | 3.5 | 0.00 | 0.00 | 0.00 | 40 | 1011.1 |
| 20260509204408 | 72 | 128 | 3.5 | 3.5 | 0.00 | 0.00 | 0.00 | 39 | 1011.2 |
| 20260509203904 | 71 | 316 | 2.6 | 3.5 | 0.00 | 0.00 | 0.00 | 40 | 1011.0 |
| 20260509203401 | 69 | 171 | 3.5 | 5.2 | 0.00 | 0.00 | 0.00 | 40 | 1011.1 |
| 20260509202858 | 68 | 313 | 1.7 | 2.6 | 0.00 | 0.00 | 0.00 | 40 | 1011.1 |
| 20260509202354 | 68 | 295 | 0.9 | 3.5 | 0.00 | 0.00 | 0.00 | 41 | 1011.1 |
| 20260509201849 | 68 | 306 | 1.7 | 2.6 | 0.00 | 0.00 | 0.00 | 41 | 1011.2 |
| 20260509201345 | 67 | 264 | 1.7 | 5.2 | 0.00 | 0.00 | 0.00 | 43 | 1011.3 |
| 20260509200842 | 67 | 321 | 0.9 | 3.5 | 0.00 | 0.00 | 0.00 | 42 | 1011.0 |
| 20260509200336 | 67 | 137 | 1.7 | 3.5 | 0.00 | 0.00 | 0.00 | 43 | 1011.0 |
| 20260509195834 | 67 | 198 | 1.7 | 5.2 | 0.00 | 0.00 | 0.00 | 44 | 1011.1 |
| 20260509195333 | 67 | 151 | 1.7 | 2.6 | 0.00 | 0.00 | 0.00 | 44 | 1010.9 |
| 20260509194833 | 68 | 252 | 1.7 | 5.2 | 0.00 | 0.00 | 0.00 | 43 | 1011.0 |
| 20260509194329 | 69 | 345 | 3.5 | 6.1 | 0.00 | 0.00 | 0.00 | 40 | 1011.1 |
| 20260509193826 | 70 | 317 | 2.6 | 5.2 | 0.00 | 0.00 | 0.00 | 37 | 1011.0 |
| 20260509193321 | 72 | 315 | 3.5 | 7.0 | 0.00 | 0.00 | 0.00 | 36 | 1011.1 |
| 20260509192817 | 73 | 321 | 3.5 | 7.0 | 0.00 | 0.00 | 0.00 | 37 | 1011.2 |
| 20260509192314 | 73 | 187 | 0.9 | 5.2 | 0.00 | 0.00 | 0.00 | 39 | 1011.0 |
| 20260509191809 | 73 | 300 | 1.7 | 8.7 | 0.00 | 0.00 | 0.00 | 39 | 1011.1 |
| 20260509191305 | 72 | 279 | 3.5 | 7.0 | 0.00 | 0.00 | 0.00 | 35 | 1011.2 |
| 20260509190801 | 71 | 278 | 5.2 | 11.3 | 0.00 | 0.00 | 0.00 | 39 | 1011.2 |
| 20260509190258 | 71 | 294 | 6.1 | 8.7 | 0.00 | 0.00 | 0.00 | 39 | 1011.2 |
| 20260509185755 | 71 | 129 | 3.5 | 11.3 | 0.00 | 0.00 | 0.00 | 39 | 1011.3 |
| 20260509185252 | 70 | 135 | 1.7 | 6.1 | 0.00 | 0.00 | 0.00 | 43 | 1011.5 |
| 20260509184749 | 68 | 227 | 0.9 | 5.2 | 0.00 | 0.00 | 0.00 | 44 | 1011.6 |
| 20260509184247 | 69 | 356 | 4.3 | 12.2 | 0.00 | 0.00 | 0.00 | 39 | 1011.6 |
| 20260509183742 | 69 | 306 | 1.7 | 7.0 | 0.00 | 0.00 | 0.00 | 41 | 1011.6 |
| 20260509183238 | 71 | 143 | 4.3 | 6.1 | 0.00 | 0.00 | 0.00 | 44 | 1011.6 |
| 20260509182734 | 71 | 323 | 2.6 | 3.5 | 0.00 | 0.00 | 0.00 | 42 | 1011.7 |
| 20260509182232 | 70 | 162 | 1.7 | 3.5 | 0.00 | 0.00 | 0.00 | 45 | 1011.3 |
| 20260509181728 | 67 | 305 | 1.7 | 2.6 | 0.00 | 0.00 | 0.00 | 46 | 1011.8 |
| 20260509181226 | 68 | 314 | 3.5 | 5.2 | 0.00 | 0.00 | 0.00 | 46 | 1011.7 |
| 20260509180723 | 67 | 154 | 1.7 | 5.2 | 0.00 | 0.00 | 0.00 | 49 | 1011.7 |
| 20260509180219 | 69 | 146 | 1.7 | 3.5 | 0.00 | 0.00 | 0.00 | 47 | 1011.8 |
| 20260509175715 | 67 | 258 | 0.9 | 7.0 | 0.00 | 0.00 | 0.00 | 52 | 1012.1 |
| 20260509175212 | 67 | 199 | 2.6 | 5.2 | 0.00 | 0.00 | 0.00 | 49 | 1012.0 |
| 20260509174707 | 68 | 180 | 1.7 | 5.2 | 0.00 | 0.00 | 0.00 | 51 | 1012.1 |
| 20260509174203 | 65 | 190 | 0.0 | 1.7 | 0.00 | 0.00 | 0.00 | 55 | 1012.1 |
| 20260509173659 | 65 | 146 | 1.7 | 5.2 | 0.00 | 0.00 | 0.00 | 51 | 1012.2 |
| 20260509173155 | 64 | 279 | 0.9 | 3.5 | 0.00 | 0.00 | 0.00 | 53 | 1012.5 |
| 20260509172651 | 64 | 113 | 0.9 | 0.9 | 0.00 | 0.00 | 0.00 | 55 | 1012.3 |
| 20260509172148 | 63 | 311 | 1.7 | 2.6 | 0.00 | 0.00 | 0.00 | 54 | 1012.4 |
| 20260509171643 | 63 | 176 | 1.7 | 2.6 | 0.00 | 0.00 | 0.00 | 54 | 1012.5 |
| 20260509171140 | 63 | 300 | 0.0 | 1.7 | 0.00 | 0.00 | 0.00 | 54 | 1012.7 |
| 20260509170636 | 63 | 325 | 1.7 | 2.6 | 0.00 | 0.00 | 0.00 | 53 | 1012.5 |
| 20260509170132 | 64 | 227 | 3.5 | 5.2 | 0.00 | 0.00 | 0.00 | 53 | 1012.6 |
| 20260509165631 | 64 | 145 | 2.6 | 2.6 | 0.00 | 0.00 | 0.00 | 56 | 1012.3 |
| 20260509165127 | 63 | 279 | 0.0 | 1.7 | 0.00 | 0.00 | 0.00 | 55 | 1012.4 |
| 20260509164623 | 63 | 262 | 0.9 | 2.6 | 0.00 | 0.00 | 0.00 | 54 | 1012.3 |
| 20260509164119 | 62 | 129 | 0.9 | 2.6 | 0.00 | 0.00 | 0.00 | 57 | 1012.2 |
| 20260509163617 | 62 | 123 | 2.6 | 3.5 | 0.00 | 0.00 | 0.00 | 55 | 1012.4 |
| 20260509163112 | 63 | 164 | 4.3 | 5.2 | 0.00 | 0.00 | 0.00 | 53 | 1012.3 |
| 20260509162610 | 62 | 93 | 1.7 | 9.6 | 0.00 | 0.00 | 0.00 | 54 | 1012.4 |
| 20260509162105 | 63 | 334 | 1.7 | 5.2 | 0.00 | 0.00 | 0.00 | 54 | 1012.4 |
| 20260509161602 | 63 | 331 | 1.7 | 3.5 | 0.00 | 0.00 | 0.00 | 51 | 1012.3 |
| 20260509161057 | 64 | 4 | 1.7 | 1.7 | 0.00 | 0.00 | 0.00 | 50 | 1012.2 |
| 20260509160553 | 64 | 150 | 0.0 | 3.5 | 0.00 | 0.00 | 0.00 | 49 | 1012.2 |
| 20260509160048 | 65 | 153 | 1.7 | 6.1 | 0.00 | 0.00 | 0.00 | 50 | 1012.2 |
| 20260509155544 | 65 | 115 | 5.2 | 9.6 | 0.00 | 0.00 | 0.00 | 53 | 1012.2 |
| 20260509155041 | 64 | 142 | 5.2 | 8.7 | 0.00 | 0.00 | 0.00 | 53 | 1012.4 |
| 20260509154537 | 64 | 130 | 4.3 | 9.6 | 0.00 | 0.00 | 0.00 | 56 | 1012.1 |
| 20260509154035 | 63 | 132 | 5.2 | 8.7 | 0.00 | 0.00 | 0.00 | 57 | 1012.3 |
| 20260509153532 | 63 | 158 | 3.5 | 6.1 | 0.00 | 0.00 | 0.00 | 55 | 1012.3 |
| 20260509153029 | 63 | 171 | 2.6 | 5.2 | 0.00 | 0.00 | 0.00 | 55 | 1012.3 |
| 20260509152524 | 63 | 135 | 4.3 | 7.8 | 0.00 | 0.00 | 0.00 | 51 | 1012.3 |
| 20260509152021 | 64 | 319 | 1.7 | 2.6 | 0.00 | 0.00 | 0.00 | 53 | 1012.6 |
| 20260509151517 | 64 | 126 | 1.7 | 2.6 | 0.00 | 0.00 | 0.00 | 58 | 1012.4 |
| 20260509151015 | 64 | 138 | 0.0 | 0.0 | 0.00 | 0.00 | 0.00 | 55 | 1012.4 |
| 20260509150513 | 64 | 332 | 0.0 | 0.9 | 0.00 | 0.00 | 0.00 | 62 | 1012.3 |
| 20260509150012 | 64 | 62 | 0.0 | 0.0 | 0.00 | 0.00 | 0.00 | 61 | 1012.3 |
| 20260509145507 | 62 | 271 | 0.0 | 1.7 | 0.00 | 0.00 | 0.00 | 56 | 1012.4 |
| 20260509145001 | 62 | 140 | 1.7 | 1.7 | 0.00 | 0.00 | 0.00 | 56 | 1012.6 |
| 20260509144459 | 61 | 129 | 0.9 | 0.9 | 0.00 | 0.00 | 0.00 | 61 | 1012.7 |
| 20260509143950 | 60 | 320 | 1.7 | 1.7 | 0.00 | 0.00 | 0.00 | 61 | 1012.7 |
| 20260509143447 | 60 | 135 | 0.9 | 1.7 | 0.00 | 0.00 | 0.00 | 58 | 1012.5 |
| 20260509142944 | 60 | 309 | 0.9 | 1.7 | 0.00 | 0.00 | 0.00 | 58 | 1012.4 |
| 20260509142440 | 60 | 210 | 1.7 | 3.5 | 0.00 | 0.00 | 0.00 | 60 | 1012.7 |
| 20260509141936 | 59 | 146 | 0.9 | 3.5 | 0.00 | 0.00 | 0.00 | 65 | 1012.5 |
| 20260509141433 | 59 | 258 | 1.7 | 3.5 | 0.00 | 0.00 | 0.00 | 64 | 1012.6 |
| 20260509140929 | 58 | 145 | 2.6 | 5.2 | 0.00 | 0.00 | 0.00 | 66 | 1012.6 |
| 20260509140426 | 58 | 235 | 1.7 | 3.5 | 0.00 | 0.00 | 0.00 | 68 | 1013.0 |
| 20260509135925 | 58 | 340 | 2.6 | 5.2 | 0.00 | 0.00 | 0.00 | 66 | 1013.2 |
| 20260509135421 | 58 | 240 | 1.7 | 2.6 | 0.00 | 0.00 | 0.00 | 65 | 1013.2 |
| 20260509134919 | 56 | 201 | 0.9 | 2.6 | 0.00 | 0.00 | 0.00 | 69 | 1013.1 |
| 20260509134416 | 56 | 330 | 2.6 | 5.2 | 0.00 | 0.00 | 0.00 | 67 | 1013.4 |
| 20260509133913 | 55 | 227 | 6.1 | 8.7 | 0.00 | 0.00 | 0.00 | 67 | 1013.5 |
| 20260509133410 | 55 | 267 | 3.5 | 7.0 | 0.00 | 0.00 | 0.00 | 68 | 1013.5 |
| 20260509132908 | 54 | 275 | 3.5 | 6.1 | 0.00 | 0.00 | 0.00 | 69 | 1013.6 |
| 20260509132406 | 54 | 316 | 4.3 | 5.2 | 0.00 | 0.00 | 0.00 | 68 | 1013.7 |
| 20260509131903 | 54 | 229 | 1.7 | 7.0 | 0.00 | 0.00 | 0.00 | 69 | 1013.9 |
| 20260509131400 | 54 | 171 | 3.5 | 7.0 | 0.00 | 0.00 | 0.00 | 69 | 1013.7 |
| 20260509130856 | 54 | 131 | 2.6 | 6.1 | 0.00 | 0.00 | 0.00 | 71 | 1013.7 |
| 20260509130351 | 54 | 130 | 2.6 | 5.2 | 0.00 | 0.00 | 0.00 | 72 | 1013.9 |
| 20260509125849 | 53 | 138 | 0.9 | 5.2 | 0.00 | 0.00 | 0.00 | 71 | 1013.8 |
| 20260509125345 | 53 | 142 | 1.7 | 2.6 | 0.00 | 0.00 | 0.00 | 70 | 1014.0 |
| 20260509124841 | 53 | 300 | 2.6 | 3.5 | 0.00 | 0.00 | 0.00 | 70 | 1014.0 |
| 20260509124339 | 52 | 313 | 2.6 | 3.5 | 0.00 | 0.00 | 0.00 | 70 | 1013.8 |
| 20260509123837 | 52 | 345 | 2.6 | 3.5 | 0.00 | 0.00 | 0.00 | 71 | 1013.7 |
| 20260509123333 | 51 | 309 | 1.7 | 3.5 | 0.00 | 0.00 | 0.00 | 73 | 1013.6 |
| 20260509122829 | 51 | 311 | 1.7 | 2.6 | 0.00 | 0.00 | 0.00 | 75 | 1013.7 |
| 20260509122326 | 51 | 154 | 0.9 | 0.9 | 0.00 | 0.00 | 0.00 | 76 | 1013.7 |
| 20260509121823 | 50 | 284 | 0.0 | 0.0 | 0.00 | 0.00 | 0.00 | 80 | 1013.6 |
| 20260509121320 | 49 | 334 | 0.0 | 0.0 | 0.00 | 0.00 | 0.00 | 79 | 1013.6 |
| 20260509120819 | 49 | 335 | 0.0 | 0.0 | 0.00 | 0.00 | 0.00 | 79 | 1013.6 |
| 20260509120316 | 48 | 335 | 0.0 | 0.0 | 0.00 | 0.00 | 0.00 | 79 | 1013.6 |
| 20260509115814 | 48 | 335 | 0.0 | 0.0 | 0.00 | 0.00 | 0.00 | 82 | 1013.6 |
| 20260509115311 | 47 | 335 | 0.0 | 0.0 | 0.00 | 0.00 | 0.00 | 82 | 1013.8 |
| 20260509114809 | 46 | 335 | 0.0 | 0.0 | 0.00 | 0.00 | 0.00 | 81 | 1013.8 |
| 20260509114307 | 46 | 335 | 0.0 | 0.0 | 0.00 | 0.00 | 0.00 | 83 | 1013.7 |
| 20260509113806 | 46 | 335 | 0.0 | 0.0 | 0.00 | 0.00 | 0.00 | 86 | 1014.0 |
| 20260509113302 | 46 | 335 | 0.0 | 0.0 | 0.00 | 0.00 | 0.00 | 86 | 1014.0 |
| 20260509112759 | 45 | 335 | 0.0 | 0.0 | 0.00 | 0.00 | 0.00 | 87 | 1013.8 |
| 20260509112256 | 45 | 335 | 0.0 | 0.0 | 0.00 | 0.00 | 0.00 | 85 | 1013.9 |
| 20260509111753 | 45 | 335 | 0.0 | 0.0 | 0.00 | 0.00 | 0.00 | 86 | 1013.9 |
| 20260509111250 | 44 | 335 | 0.0 | 0.0 | 0.00 | 0.00 | 0.00 | 87 | 1013.9 |
| 20260509110748 | 44 | 335 | 0.0 | 0.0 | 0.00 | 0.00 | 0.00 | 86 | 1013.8 |
| 20260509110244 | 44 | 335 | 0.0 | 0.0 | 0.00 | 0.00 | 0.00 | 86 | 1013.8 |
| 20260509105742 | 44 | 335 | 0.0 | 0.0 | 0.00 | 0.00 | 0.00 | 86 | 1014.0 |
| 20260509105240 | 44 | 335 | 0.0 | 0.0 | 0.00 | 0.00 | 0.00 | 85 | 1013.8 |
| 20260509104736 | 44 | 335 | 0.0 | 0.0 | 0.00 | 0.00 | 0.00 | 87 | 1013.9 |
| 20260509104233 | 44 | 335 | 0.0 | 0.0 | 0.00 | 0.00 | 0.00 | 87 | 1013.9 |
| 20260509103731 | 43 | 335 | 0.0 | 0.0 | 0.00 | 0.00 | 0.00 | 85 | 1013.8 |
| 20260509103228 | 43 | 335 | 0.0 | 0.0 | 0.00 | 0.00 | 0.00 | 85 | 1014.0 |
| 20260509102726 | 43 | 335 | 0.0 | 0.0 | 0.00 | 0.00 | 0.00 | 87 | 1013.9 |
| 20260509102222 | 43 | 335 | 0.0 | 0.0 | 0.00 | 0.00 | 0.00 | 86 | 1013.8 |
| 20260509101719 | 43 | 335 | 0.0 | 0.0 | 0.00 | 0.00 | 0.00 | 86 | 1013.7 |
| 20260509101216 | 43 | 335 | 0.0 | 0.0 | 0.00 | 0.00 | 0.00 | 86 | 1013.8 |
| 20260509100713 | 43 | 335 | 0.0 | 0.0 | 0.00 | 0.00 | 0.00 | 86 | 1013.8 |
| 20260509100210 | 43 | 335 | 0.0 | 0.0 | 0.00 | 0.00 | 0.00 | 85 | 1013.8 |
| 20260509095707 | 43 | 335 | 0.0 | 0.0 | 0.00 | 0.00 | 0.00 | 85 | 1013.8 |
| 20260509095205 | 43 | 335 | 0.0 | 0.0 | 0.00 | 0.00 | 0.00 | 85 | 1013.9 |
| 20260509094701 | 43 | 335 | 0.0 | 0.0 | 0.00 | 0.00 | 0.00 | 84 | 1013.9 |
| 20260509094158 | 43 | 335 | 0.0 | 0.0 | 0.00 | 0.00 | 0.00 | 84 | 1013.9 |
| 20260509093656 | 43 | 335 | 0.0 | 0.0 | 0.00 | 0.00 | 0.00 | 84 | 1013.9 |
| 20260509093152 | 44 | 335 | 0.0 | 0.0 | 0.00 | 0.00 | 0.00 | 82 | 1013.7 |
| 20260509092650 | 44 | 335 | 0.0 | 0.0 | 0.00 | 0.00 | 0.00 | 80 | 1013.8 |
| 20260509092149 | 44 | 335 | 0.0 | 0.0 | 0.00 | 0.00 | 0.00 | 79 | 1013.8 |
| 20260509091646 | 45 | 335 | 0.0 | 0.0 | 0.00 | 0.00 | 0.00 | 80 | 1013.9 |
| 20260509091142 | 45 | 335 | 0.0 | 0.0 | 0.00 | 0.00 | 0.00 | 80 | 1014.1 |
| 20260509090640 | 46 | 335 | 0.0 | 0.0 | 0.00 | 0.00 | 0.00 | 77 | 1013.9 |
| 20260509090137 | 46 | 335 | 0.0 | 0.0 | 0.00 | 0.00 | 0.00 | 77 | 1013.9 |
| 20260509085635 | 46 | 335 | 0.0 | 0.0 | 0.00 | 0.00 | 0.00 | 76 | 1014.1 |
| 20260509085130 | 45 | 335 | 0.0 | 0.0 | 0.00 | 0.00 | 0.00 | 78 | 1014.1 |
| 20260509084628 | 45 | 335 | 0.0 | 0.0 | 0.00 | 0.00 | 0.00 | 77 | 1014.1 |
| 20260509084125 | 45 | 335 | 0.0 | 0.0 | 0.00 | 0.00 | 0.00 | 77 | 1014.0 |
| 20260509083622 | 45 | 341 | 0.0 | 0.0 | 0.00 | 0.00 | 0.00 | 78 | 1014.2 |